Location: Brotuna
(46.2000°N, 22.6000°E)
Time: 23:29:07
(UTC+00:00)

Meteor 2-3 Rocket - Pass Details

Date: 09 April 2020
Orbit: 842 x 885 km, 81.2° (Epoch: 29 May)

Event Time Altitude Azimuth Distance (km) Brightness Sun altitude
Rises 20:05:16 0° 352° (N) 3,479 7.8 -26.8°
Reaches altitude 10° 20:07:47 10° 356° (N) 2,531 6.8 -27.1°
Enters shadow 20:13:03 57° 57° (ENE) 1,019 4.0 -27.7°
